This is the latest recevied weather packets stored in our database for station/object JH0KSP-13. If no packets are shown the sender has not sent any weather packets the latest 10 day(s).
| Time | Temp. | Humidity | Pressure | Rain* | Wind** | Luminosity | Snow |
|---|---|---|---|---|---|---|---|
| 1777764416 | 12.78° C | 86% | 1013.4 hPa | 0 mm | - | - | - |
| 1777763216 | 12.78° C | 91% | 1013.5 hPa | 0 mm | - | - | - |
| 1777762017 | 12.22° C | 94% | 1013.5 hPa | 0 mm | - | - | - |
| 1777761608 | 12.22° C | 94% | 1013.7 hPa | 0 mm | - | - | - |
| 1777761009 | 12.22° C | 96% | 1013.5 hPa | 0 mm | - | - | - |
| 1777760816 | 12.22° C | 96% | 1013.4 hPa | 0 mm | - | - | - |
| 1777760409 | 12.22° C | 96% | 1013.4 hPa | 0 mm | - | - | - |
| 1777759809 | 12.22° C | 97% | 1013.5 hPa | 0 mm | - | - | - |
| 1777759615 | 12.22° C | 97% | 1013.6 hPa | 0 mm | - | - | - |
| 1777759209 | 12.22° C | 97% | 1013.9 hPa | 0 mm | - | - | - |
| 1777758609 | 12.22° C | 98% | 1014.2 hPa | 0 mm | - | - | - |
| 1777758416 | 12.22° C | 98% | 1014 hPa | 0 mm | - | - | - |
| 1777758009 | 12.22° C | 98% | 1014.2 hPa | 0 mm | - | - | - |
| 1777757216 | 11.11° C | 98% | 1014.2 hPa | 0 mm | - | - | - |
| 1777756808 | 11.11° C | 98% | 1013.9 hPa | 0 mm | - | - | - |
| 1777756208 | 11.11° C | 98% | 1013.9 hPa | 0 mm | - | - | - |
| 1777756017 | 11.11° C | 98% | 1013.9 hPa | 0 mm | - | - | - |
| 1777755608 | 11.11° C | 98% | 1013.9 hPa | 0 mm | - | - | - |
| 1777755008 | 11.11° C | 98% | 1013.9 hPa | 0 mm | - | - | - |
| 1777754816 | 11.11° C | 98% | 1013.8 hPa | 0 mm | - | - | - |
| 1777754409 | 11.11° C | 98% | 1013.7 hPa | 0 mm | - | - | - |
| 1777753809 | 11.11° C | 97% | 1013.9 hPa | 0 mm | - | - | - |
| 1777753615 | 11.11° C | 97% | 1013.9 hPa | 0 mm | - | - | - |
| 1777753208 | 11.11° C | 97% | 1013.8 hPa | 0 mm | - | - | - |
| 1777752609 | 11.11° C | 97% | 1013.7 hPa | 0 mm | - | - | - |
* Rain latest hour (hover to see other rain measurements)
** Current wind speed in m/s (hover to see current wind gust speed)